Hourly Data Report for December 12, 2004

SHERBROOKE A
QUEBEC

45°26'00.000" N
71°41'00.000" W
241.40 m
7028124
71610
YSC

Download Data

Hourly Data (December 2004)
Hourly Data Report for December 12, 2004
TIME
LST
Temp Definition
°C
Dew Point Definition
°C
Rel Hum Definition
%
Precip. Amount Definition
mm

Wind Dir Definition
10's deg

Wind Spd Definition
km/h
Visibility Definition
km
Stn Press Definition
kPa
Hmdx Definition


Wind Chill Definition


Weather Definition


00:00 -1.9 -3.6 88   26 15 15.0 96.60   -7 Snow
01:00 -2.1 -3.9 87   26 6 15.0 96.64   -4  
02:00 -2.4 -4.1 88   26 13 12.9 96.71   -7  
03:00 -2.5 -4.1 89   24 7 9.7 96.74   -5  
04:00 -2.6 -4.4 87   25 9 15.0 96.76   -6 Snow
05:00 -2.8 -4.7 87   26 9 15.0 96.80   -6 Snow
06:00 -3.0 -4.9 87   27 11 15.0 96.86   -7 Snow
07:00 -3.1 -4.9 87   26 9 15.0 96.92   -7  
08:00 -3.2 -4.8 89   26 4 6.4 96.96   -5 Snow
09:00 -3.0 -4.4 90     0 2.4 96.98     Snow
10:00 -2.6 -4.2 89   22 4 12.9 97.01   -4 Snow
11:00 -2.3 -4.4 85   26 11 16.1 96.99   -6 Snow
12:00 -2.7 -5.5 81   26 17 12.9 96.98   -8 Snow Showers
13:00 -3.3 -5.7 83   26 13 12.9 97.01   -8 Snow Showers
14:00 -3.8 -6.4 82   26 17 19.3 97.05   -10 Snow Showers
15:00 -4.0 -6.6 82   26 11 16.1 97.11   -8 Snow Showers
16:00 -4.5 -6.9 83   26 6 16.1 97.15   -7 Snow Showers
17:00 -4.9 -7.3 83   23 7 6.4 97.21   -8 Snow Showers
18:00 -5.3 -7.7 83   26 7 11.3 97.25   -9 Snow
19:00 -5.5 -8.3 81   26 11 15.0 97.25   -10 Snow
20:00 -5.8 -8.5 81   25 7 15.0 97.25   -9  
21:00 -6.0 -8.4 83     0 15.0 97.21     Snow
22:00 -6.3 -8.3 86     0 15.0 97.18      
23:00 -6.1 -8.2 85   8 6 15.0 97.17   -9  

Notes on Data Quality.

Legend

  • E = Estimated
  • M = Missing
  • NA = Not Available*
  • [empty] = Indicates an unobserved value
Date modified: